Regional Weather Roundup
Issued by NWS Midland/Odessa, TX

Skip options and go directly to product.
Home | Oldest Version | Next Version | Current Version | All | Text Only | Save Text | Print | Product List | Glossary On

Skip product version selection by date and time.   
958
ASUS44 KMAF 191802
RWRMAF
MIDLAND AREA WEATHER ROUNDUP
NATIONAL WEATHER SERVICE MIDLAND TX
100 PM CDT SUN OCT 19 2014

...IN SOUTHWEST TEXAS AND SOUTHEAST NEW MEXICO...

CITY           SKY/WX    TMP DP  RH WIND       PRES   REMARKS
ALPINE         CLOUDY    73  53  49 E9G17     30.20F
ANDREWS        FAIR      70  58  66 SE9       30.14F
ARTESIA        NOT AVBL
BIG SPRING     CLOUDY    74  60  61 SE7       30.16F
CARLSBAD       CLOUDY    65  55  70 N8        30.13F
DRYDEN           N/A     76  66  71 E15       30.08F
FORT STOCKTON  PTSUNNY   74  58  57 CALM      30.11F
GUAD PASS      NOT AVBL
HOBBS          MOSUNNY   66  57  72 SE12      30.14F
MARFA          MOSUNNY   72  54  53 E18       30.16S
MIDLAND AIRPK  PTSUNNY   74  60  61 SE10      30.14F
MIDLAND INTL   PTSUNNY   75  60  59 SE13      30.12F
ODESSA         CLOUDY    74  59  59 S9        30.13F
PECOS          CLOUDY    69  56  63 S5        30.11F
PRESIDIO       FAIR      80  55  41 E14       30.03F
SEMINOLE       PTSUNNY   71  58  64 S10       30.16S
SNYDER         CLOUDY    65  61  87 SE7       30.16F
WINK           CLOUDY    72  61  68 S12       30.10S
$$
...OTHER STATIONS IN TEXAS...

CITY           SKY/WX    TMP DP  RH WIND       PRES   REMARKS
ABILENE        MOSUNNY   77  59  53 VRB6G16   30.13F
AMARILLO       MOSUNNY   67  54  63 S17       30.14F
AUSTIN         PTSUNNY   79  66  64 NE9       30.09F
BROWNSVILLE    CLOUDY    83  68  60 E15       29.99F
CORPUS CHRISTI PTSUNNY   83  65  54 E16       30.02F
DALLAS FTW     PTSUNNY   70  52  52 SE9       30.15F
DEL RIO        PTSUNNY   79  63  57 SE12G22   30.04F
EL PASO        PTSUNNY   71  52  50 E10       30.07F
HOUSTON INT    MOSUNNY   77  60  55 E8        30.09F
LUBBOCK        CLOUDY    65  56  72 S7        30.15F
SAN ANGELO     MOSUNNY   77  60  55 SE6       30.12F
SAN ANTONIO    PTSUNNY   79  60  52 E12G18    30.08F
WACO           CLOUDY    72  59  63 SE5       30.14S
WICHITA FALLS  NOT AVBL
$$
...OTHER LOCATIONS IN NEW MEXICO...

CITY           SKY/WX    TMP DP  RH WIND       PRES   REMARKS
ALAMAGORDO     NOT AVBL
ALBUQUERQUE    PTSUNNY   65  44  46 SW5       30.20S
CANNON AFB     PTSUNNY   63  50  63 S10       30.17F
CLOVIS         PTSUNNY   63  50  63 SW13      30.19F
HOLLOMAN AFB   PTSUNNY   66  51  59 W7        30.10S
ROSWELL        CLOUDY    61  51  70 E3        30.15F
RUIDOSO        PTSUNNY   59  46  63 MISG      30.26S
SANTA FE       SUNNY     63  43  48 N8        30.21F
TRUTH OR CONSE LGT RAIN  58  51  78 N12       30.16S
TUCUMCARI      SUNNY     73  52  47 W16G25    30.11F
$$

USA.gov is the U.S. government's official web portal to all federal, state and local government web resources and services.